Location: Chevut?ru
(16.6956°N, 80.5999°E)
Time: 09:57:20
(UTC+00:00)

Daily predictions for brighter satellites

Satellite Brightness Start Highest point End
(mag) Time Altitude Azimuth Time Altitude Azimuth Time Altitude Azimuth
Cosmos 1238 Rocket 4.2 13:18:52 10° SSE 13:22:54 29° E 13:27:25 10° NNE
SWIFT 2.3 13:21:29 10° W 13:25:29 72° SSW 13:29:27 10° ESE
Delta 2 Rocket 2.8 13:22:54 10° NW 13:26:06 63° NNE 13:29:21 10° ESE
SL-8 R/B 4.4 13:27:06 10° S 13:31:14 30° SE 13:35:23 10° ENE
Cosmos 1459 Rocket 4.1 13:32:27 10° N 13:38:47 88° W 13:45:10 10° S
Cosmos 2016 Rocket 4.2 13:33:03 10° N 13:39:13 54° E 13:45:24 10° SSE
Meteor PRIRODA 3.7 13:36:19 10° SSE 13:39:37 49° ENE 13:42:56 10° N
Cosmos 1867 3.6 13:34:45 10° NNW 13:40:12 83° ENE 13:45:37 10° SSE
Cosmos 2151 4.4 13:38:27 10° NE 13:41:25 19° E 13:43:41 13° ESE
CZ-4B R/B 3.3 13:38:04 10° SSE 13:42:48 83° ENE 13:47:33 10° N
Cosmos 1812 2.6 13:42:42 10° S 13:46:12 55° E 13:49:41 10° NNE
Cosmos 2298 Rocket 4.0 13:45:12 10° N 13:50:29 68° ENE 13:55:45 10° SSE
Cosmos 972 Rocket 3.9 13:45:38 10° S 13:50:30 55° E 13:55:15 10° NNE
Landsat 7 3.8 13:47:52 10° SSE 13:52:34 89° W 13:57:15 10° NNW
CZ-4B DEB 4.4 13:49:38 10° SSE 13:54:57 51° ENE 14:00:15 10° N
Intelsat 5-3 Rocket 3.0 13:54:27 10° W 13:57:03 34° SSW 13:59:47 18° SE
Cosmos 2278 Rocket 4.1 13:56:29 10° NE 13:58:19 11° ENE 13:59:26 11° ENE
Meteor 2-8 Rocket 4.4 13:53:30 10° N 13:59:37 87° E 14:05:42 10° S
Resurs 1-3 3.7 13:57:00 13° SSE 14:00:45 51° ENE 14:04:57 10° N
Cosmos 1782 4.0 14:00:58 20° E 14:01:00 20° E 14:03:51 10° NE
YAOGAN 1 3.6 14:00:21 10° S 14:04:26 44° W 14:08:31 10° NNW
Cosmos 2058 Rocket 3.3 14:01:45 10° S 14:06:05 72° W 14:10:27 10° N
Cosmos 1953 Rocket 3.8 14:02:07 10° N 14:06:21 49° E 14:09:08 20° SSE
Cosmos 1666 2.3 14:04:39 10° N 14:08:05 87° W 14:10:53 14° S
Orbus 7S 3.9 14:06:31 10° SW 14:08:34 51° SSE 14:09:17 38° ESE
Cosmos 1680 Rocket 4.4 14:06:16 19° SE 14:08:46 27° E 14:13:11 10° NE
Cosmos 2233 Rocket 4.0 14:06:27 10° N 14:12:43 69° E 14:18:58 10° SSE
SL-16 R/B 2.6 14:12:07 10° S 14:17:17 38° ESE 14:22:28 10° NE
ADEOS 4.2 14:12:40 10° S 14:17:45 55° WSW 14:22:50 10° NNW
Cosmos-2242 3.0 14:18:22 27° SSE 14:20:22 53° E 14:24:27 10° NNE
CZ-4B R/B 3.3 14:23:16 18° S 14:25:39 49° W 14:29:07 10° NNW
Meteor 2-21 4.4 14:25:19 10° S 14:31:28 69° E 14:37:36 10° N
SPOT 1/Viking Rocket 3.5 14:31:14 22° S 14:34:36 82° WSW 14:39:47 10° NNW
CSL-04 Rocket 3.9 14:34:16 41° ESE 14:35:20 46° ENE 14:40:23 10° N
SeaSat 1 2.3 14:35:06 41° SSE 14:36:50 82° ENE 14:41:44 10° NNW
Cosmos 1933 4.0 14:38:51 39° NE 14:38:51 39° NE 14:41:38 10° NNE
CSL-04 Debris 4.2 14:37:35 44° SE 14:39:02 58° ENE 14:44:23 10° N
Cosmos 1602 4.2 14:38:57 10° NNW 14:42:25 51° W 14:43:11 42° SW
Cosmos 1812 Rocket 3.4 14:45:31 71° E 14:45:31 71° E 14:49:49 10° N
Meteor 2-21 Rocket 4.4 14:43:44 36° SSE 14:46:15 64° E 14:52:22 10° NNE
CARTOSAT-1 3.7 14:47:42 57° NE 14:47:42 57° NE 14:51:24 10° N
CZ-4 R/B 2.6 14:46:52 26° SW 14:48:16 36° W 14:51:44 10° NNW
Cosmos 489 Rocket 4.4 14:43:26 10° N 14:49:35 68° ENE 14:50:58 52° SE
YAOGAN 20C 4.4 14:44:38 10° SSW 14:50:16 77° ESE 14:56:01 10° NNE
ARIANE 5 R/B 4.4 14:32:46 10° WSW 14:51:45 28° SSW 14:53:44 24° S
GPS 2-14 Rocket1 4.0 14:48:45 10° W 14:50:28 29° WNW 14:50:28 29° WNW
ATLAS 5 CENTAUR R/B 2.8 14:46:40 10° N 14:52:28 47° ENE 14:53:14 45° E
Atlas 2A Centaur Rocket 3.8 14:48:11 10° SW 14:50:54 21° SSW 14:50:54 21° SSW
Resurs 01 Rocket 1.5 14:53:58 84° NNE 14:53:58 84° NNE 14:58:16 10° N
YAOGAN 20A 4.5 14:48:45 10° SSW 14:54:24 88° ESE 15:00:10 10° NNE
GPS 2-17 Rocket1 3.0 14:49:46 10° WSW 14:54:20 83° SW 14:54:20 83° SW
Meteor 2-2 Rocket 4.4 14:49:34 14° S 14:54:47 78° W 15:00:48 10° N
YAOGAN 20B 4.4 14:50:13 10° SSW 14:55:52 85° ESE 15:01:38 10° NNE
CZ-4C R/B 4.1 14:55:55 10° N 14:58:42 45° N 14:58:42 45° N
Cosmos 1076 Rocket 4.3 14:56:57 10° NNW 15:00:59 47° W 15:01:33 44° WSW
SEDSat Delta rocket 4.0 15:00:30 10° WNW 15:04:22 39° WSW 15:04:22 39° WSW
SWIFT 4.5 15:03:05 10° WSW 15:04:30 17° WSW 15:04:30 17° WSW
Cosmos 1464 Rocket 4.2 15:01:30 10° N 15:06:53 52° ENE 15:06:53 52° ENE
Aurora 2 Rocket 3.7 15:07:49 10° WNW 15:09:57 34° NW 15:09:57 34° NW
Okean O Rocket 2.5 15:16:59 47° NW 15:16:59 47° NW 15:20:25 10° NNW
Meteor 1-26 Rocket 4.2 15:16:57 87° WSW 15:17:00 87° W 15:23:04 10° N
Cosmos 1943 Rocket 3.3 15:33:06 10° N 15:36:26 36° N 15:36:26 36° N
Cosmos 2278 Rocket 3.1 15:36:58 10° NNW 15:41:18 46° WNW 15:41:18 46° WNW
ATLAS 3B R/B 4.2 16:31:10 10° NNW 16:35:18 34° N 16:35:18 34° N
SL-16 R/B 4.4 20:43:08 22° E 20:44:10 23° ENE 20:48:54 10° NNE
H-2A R/B 3.6 21:04:07 54° ESE 21:04:07 54° ESE 21:13:45 10° ESE
SL-16 R/B 3.6 21:24:40 10° N 21:29:45 34° ENE 21:34:49 10° SE
Delta 168 4.5 21:31:49 73° SSE 21:31:52 73° SSE 21:38:51 10° ENE
ARIANE 5 R/B 3.9 21:36:00 35° SSE 21:36:00 35° SSE 21:52:54 10° E
ATLAS CENTAUR R/B 4.1 21:39:07 12° ENE 21:39:07 12° ENE 21:39:41 10° ENE
CZ-2C R/B 3.5 21:35:04 10° NNE 21:38:33 38° ENE 21:38:33 38° ENE
NOAA 11 4.5 21:36:55 10° NNE 21:41:56 64° ENE 21:41:56 64° ENE
NOSS 3-4 (C) 4.5 21:35:45 10° NW 21:53:59 - SSE 21:41:12 47° WNW
ATLAS CENTAUR R/B 4.2 21:37:59 10° NW 21:44:20 38° NW 21:44:20 38° NW
Cosmos 1295 Rocket 4.3 21:52:57 84° SSW 21:53:10 88° W 21:59:18 10° N
PAYLOAD A 4.3 21:48:54 10° NNE 21:53:41 57° ESE 21:53:47 57° ESE
Cosmos 2360 Rocket 4.3 21:51:43 10° NNE 21:56:20 25° ENE 22:00:55 10° SE
Cosmos 1486 Rocket 4.3 22:00:37 57° SE 22:01:16 62° ESE 22:06:24 10° NNE
Cosmos 2074 Rocket 4.0 22:01:43 60° WNW 22:01:43 60° WNW 22:07:33 10° N
Cosmos 1825 4.1 22:08:29 20° N 22:08:29 20° N 22:09:39 10° N
Cosmos 2278 3.9 22:04:15 10° NNW 22:08:53 53° WNW 22:08:53 53° WNW
Cosmos 1241 Rocket 4.4 22:09:28 59° W 22:10:01 62° WNW 22:16:08 10° NNE
ASTEX 1 4.4 22:08:11 11° SSE 22:12:46 44° E 22:17:27 10° N
Cosmos 2184 Rocket 4.3 22:16:05 45° W 22:16:05 45° W 22:21:51 10° NNW
Cosmos 2333 Rocket 3.7 22:12:29 10° N 22:17:43 37° ENE 22:22:57 10° SE
Hubble Space Telescope 2.8 22:16:10 17° NNW 22:17:53 23° NNE 22:21:05 10° ENE
ATLAS 5 CENTAUR R/B 3.9 21:51:05 10° W 22:18:36 39° SW 22:25:36 10° SSE
Cosmos 405 Rocket 4.2 22:16:51 10° NNE 22:20:10 34° E 22:23:12 12° SSE
Tiangong 0.8 22:21:53 11° N 22:21:53 11° N 22:22:07 10° N
Cosmos 2297 Rocket 3.5 22:19:38 12° SSE 22:24:20 36° ESE 22:29:25 10° NE
USA 215 3.2 22:18:09 10° NE 22:24:41 87° NW 22:27:34 37° SW
IRS-1D 3.6 22:20:05 10° N 22:25:19 63° WNW 22:26:27 50° SW
Cosmos 1484 Rocket 4.4 22:22:33 10° NE 22:25:50 30° E 22:28:24 15° SSE
Cosmos 2154 Rocket 4.2 22:25:33 43° WSW 22:26:26 46° W 22:32:20 10° NNW
SL-16 R/B 3.2 22:28:12 34° W 22:28:12 34° W 22:33:00 10° NW
ARIANE 44L R/B 4.3 22:27:11 32° SSW 22:27:48 33° SSW 22:31:19 10° SE
Sich 1 Rocket 3.5 22:24:30 10° N 22:28:59 88° E 22:31:08 30° S
Cosmos 2322 Rocket 2.2 22:25:58 10° NNW 22:31:38 85° ENE 22:37:19 10° SSE
Cosmos 2151 Rocket 3.5 22:31:41 10° NNW 22:36:05 65° W 22:37:36 38° SSW
Cosmos 2341 Rocket 4.3 22:31:34 10° S 22:37:51 70° E 22:44:03 10° N
Envisat 4.4 22:35:14 10° NNW 22:38:35 22° WNW 22:38:35 22° WNW
Atlas Centaur 2 1.0 22:45:02 48° W 22:45:52 68° NNW 22:49:23 10° ENE
Nadezhda 3 Rocket 3.9 22:39:32 10° N 22:45:53 83° W 22:52:10 10° S
Thor Agena Rocket 4.3 22:43:16 10° N 22:47:58 35° WNW 22:49:32 29° WSW
Cosmos 1025 Rocket 3.4 22:47:04 37° WSW 22:48:03 44° W 22:52:13 10° NNW
Okean 2 Rocket 3.3 22:45:34 10° NNW 22:49:45 46° W 22:51:49 26° SSW
Cosmos 2366 rocket 4.2 22:48:18 10° S 22:54:36 78° E 23:00:56 10° N
Ariane H10-3 4.0 22:56:30 11° S 22:56:30 11° S 22:56:52 10° SSE
Cosmos 371 Rocket 4.0 23:03:06 23° WSW 23:05:12 33° WNW 23:09:29 10° N
H-2A R/B 2.2 23:01:28 10° N 23:06:49 63° WNW 23:12:08 10° SSW
CZ-3 Stage 3 2.6 23:04:52 18° WNW 23:06:57 50° SSW 23:09:57 10° SE
Palapa 6 Rocket 2.8 23:03:57 16° WNW 23:07:01 84° NNE 23:11:29 10° ESE
Iridium 921 4.5 23:06:28 14° SSW 23:09:18 54° W 23:12:40 10° N
H-2A R/B 3.0 23:06:31 10° NNE 23:09:38 54° E 23:12:45 10° S
BREEZE-M DEB (TANK) 3.4 23:09:39 15° SSW 23:11:29 44° ESE 23:16:09 10° NE
Star 48B 3.7 23:11:17 22° WSW 23:13:01 88° SSE 23:15:07 10° ENE
SL-16 R/B 3.5 23:09:42 10° WNW 23:13:28 18° WSW 23:16:11 13° SW
H-2A R/B 4.5 23:07:09 14° W 23:14:27 37° SSW 23:29:12 10° SSE
ATLAS CENTAUR R/B 2.9 23:14:10 13° WNW 23:14:53 14° WNW 23:16:45 10° NNW
Cosmos 2333 4.2 23:11:42 10° NNW 23:17:25 72° WSW 23:23:09 10° S
CENTAUR R/B 4.4 23:15:06 10° SSE 23:18:23 18° ESE 23:21:54 10° ENE
Lacrosse 5 rocket 2.6 23:16:06 10° NNW 23:19:41 40° NE 23:23:06 10° SE
COSMOS 2455 3.0 23:18:12 10° SW 23:24:01 54° WNW 23:29:53 10° N
Okean 1 Rocket 4.0 23:21:23 10° NW 23:25:00 27° W 23:28:38 10° SSW
ARIANE 5 R/B 2.9 23:20:29 10° NNE 23:25:28 64° ESE 23:30:23 10° S
RESURS DK-1 2.3 23:23:13 10° NNW 23:27:12 62° WSW 23:31:12 10° S
ARGOS 3.3 23:23:04 10° NNE 23:28:26 83° ESE 23:33:50 10° S
COSMOS 2428 4.4 23:24:07 10° N 23:29:21 38° ENE 23:34:34 10° SE
SL-08 RB Rocket 4.3 23:26:02 10° NNE 23:30:24 58° E 23:34:45 10° S
Cosmos 2219 Rocket 2.2 23:27:56 10° NNW 23:33:35 73° WSW 23:39:12 10° S
Aureole 1 Rocket 3.5 23:35:21 10° S 23:39:00 46° ESE 23:42:04 10° NNE
Cosmos 2360 Rocket 3.2 23:35:32 10° NW 23:40:03 25° WSW 23:44:35 10° SSW
Cosmos 2263 Rocket 4.2 23:37:42 10° SSE 23:42:30 29° ESE 23:47:15 10° NE
Cosmos 1939 Rocket 4.0 23:40:38 10° NNW 23:43:55 25° WNW 23:47:15 10° SW
Cosmos 2227 Rocket 2.2 23:38:38 10° SSW 23:44:16 75° WNW 23:49:56 10° NNE
Cosmos 836 Rocket 4.5 23:41:00 10° NNW 23:46:09 75° WSW 23:51:19 10° S
IRS-1C 4.2 23:41:59 10° N 23:47:15 65° WNW 23:52:30 10° SSW
